GW5239 Weather Reports


time (UTC)temp
F
wind
direction
speed
knots
gust
knots
rain 1hr
in
rain 24hr
in
rain mn
in
humidity
%
barometer
mb
20260902014515 52 260 0.0 0.0 0.00 0.00 0.00 93 1022.1
20260902013019 52 260 0.0 0.0 0.00 0.00 0.00 93 1022.1
20260902011531 52 260 0.0 0.0 0.00 0.00 0.00 93 1022.2
20260902010034 53 260 0.0 0.0 0.00 0.00 0.00 93 1022.2
20260902004532 53 260 0.0 0.0 0.00 0.00 0.00 93 1022.2
20260902003017 53 260 0.0 0.0 0.00 0.00 0.00 93 1022.2
20260902001522 53 260 0.0 0.0 0.00 0.00 0.00 92 1022.2
20260902000008 53 260 0.0 0.0 0.00 0.00 0.00 91 1022.2
20260901234506 53 260 0.0 0.0 0.00 0.00 0.00 91 1022.1
20260901233013 54 260 0.0 0.0 0.00 0.00 0.00 90 1022.2
20260901231523 54 260 0.0 0.0 0.00 0.00 0.00 89 1022.2
20260901230004 54 260 0.0 0.0 0.00 0.00 0.00 88 1022.4
20260901224508 55 260 0.0 0.0 0.00 0.00 0.00 87 1022.4
20260901223008 56 260 0.0 0.0 0.00 0.00 0.00 86 1022.4
20260901221514 56 260 0.0 0.0 0.00 0.00 0.00 84 1022.3
20260901220020 58 260 0.0 0.0 0.00 0.00 0.00 82 1022.5
20260901214522 59 260 0.0 0.0 0.00 0.00 0.00 79 1022.5
20260901213012 60 260 0.0 0.0 0.00 0.00 0.00 77 1022.5
20260901211512 61 260 0.0 0.9 0.00 0.00 0.00 76 1022.7
20260901210014 62 260 0.0 0.9 0.00 0.00 0.00 75 1022.7
20260901204522 62 231 0.0 2.6 0.00 0.00 0.00 74 1022.8
20260901203026 62 214 0.0 0.9 0.00 0.00 0.00 75 1022.6
20260901201504 62 240 0.0 1.7 0.00 0.00 0.00 75 1022.4
20260901200016 61 261 0.0 2.6 0.00 0.00 0.00 77 1022.4
20260901194516 61 247 0.0 0.9 0.00 0.00 0.00 76 1022.4
20260901193024 61 253 0.0 0.9 0.00 0.00 0.00 75 1022.2
20260901191526 62 240 0.0 0.9 0.00 0.00 0.00 73 1022.0
20260901190008 62 231 0.0 0.9 0.00 0.00 0.00 72 1022.0
20260901184513 63 229 0.0 0.9 0.00 0.00 0.00 71 1021.9
20260901183024 64 246 0.0 0.9 0.00 0.00 0.00 69 1021.8
20260901181525 65 232 0.0 0.9 0.00 0.00 0.00 66 1021.8
20260901180026 66 225 0.0 0.9 0.00 0.00 0.00 64 1021.8
20260901174533 67 223 0.0 1.7 0.00 0.00 0.00 61 1021.9
20260901173015 69 196 0.0 5.2 0.00 0.00 0.00 58 1022.0
20260901171520 70 185 0.9 6.1 0.00 0.00 0.00 56 1022.0
20260901170041 70 229 0.9 7.0 0.00 0.00 0.00 55 1021.9
20260901164531 70 294 0.9 3.5 0.00 0.00 0.00 54 1021.9
20260901163046 69 265 0.0 3.5 0.00 0.00 0.00 57 1021.8
20260901161516 70 283 0.9 4.3 0.00 0.00 0.00 56 1021.6
20260901160022 69 279 1.7 6.1 0.00 0.00 0.00 57 1021.8
20260901154528 70 207 0.9 3.5 0.00 0.00 0.00 58 1021.8
20260901153033 70 127 0.9 6.1 0.00 0.00 0.00 59 1021.8
20260901151531 70 306 1.7 4.3 0.00 0.00 0.00 59 1021.9
20260901150006 70 222 0.9 9.6 0.00 0.00 0.00 59 1021.8
20260901144505 69 121 0.9 6.1 0.00 0.00 0.00 57 1021.9
20260901143003 70 247 1.7 3.5 0.00 0.00 0.00 56 1022.0
20260901141507 71 279 0.9 7.0 0.00 0.00 0.00 57 1022.0
20260901140017 71 183 0.9 7.8 0.00 0.00 0.00 56 1022.0
20260901134509 71 178 1.7 7.8 0.00 0.00 0.00 57 1022.1
20260901133004 71 329 1.7 7.0 0.00 0.00 0.00 59 1022.0
20260901131507 71 252 0.9 7.8 0.00 0.00 0.00 59 1022.0
20260901130011 72 187 1.7 6.1 0.00 0.00 0.00 58 1022.1
20260901124515 71 137 1.7 4.3 0.00 0.00 0.00 61 1022.2
20260901123003 70 250 2.6 12.2 0.00 0.00 0.00 63 1022.1
20260901121504 70 266 1.7 6.1 0.00 0.00 0.00 64 1022.3
20260901120008 69 273 3.5 8.7 0.00 0.00 0.00 67 1022.4
20260901114511 69 211 1.7 7.0 0.00 0.00 0.00 68 1022.3
20260901113016 66 265 2.6 6.1 0.00 0.08 0.00 73 1022.3
20260901111525 67 318 0.9 7.0 0.00 0.08 0.00 73 1022.3
20260901110006 67 82 0.0 5.2 0.00 0.08 0.00 76 1022.4
20260901104507 66 265 0.9 7.0 0.00 0.08 0.00 77 1022.4
20260901103013 68 250 1.7 6.1 0.00 0.08 0.00 76 1022.4
20260901101520 66 229 1.7 6.1 0.00 0.08 0.00 79 1022.4
20260901100028 64 263 0.9 5.2 0.00 0.08 0.00 81 1022.5
20260901094504 64 196 0.9 3.5 0.00 0.08 0.00 84 1022.5
20260901093008 64 271 0.9 3.5 0.00 0.08 0.00 83 1022.4
20260901091512 64 219 0.0 6.1 0.00 0.08 0.00 84 1022.3
20260901090020 64 261 0.9 2.6 0.00 0.08 0.00 84 1022.3
20260901084527 64 201 1.7 6.1 0.00 0.08 0.00 85 1022.1
20260901083005 63 119 0.9 5.2 0.00 0.08 0.00 85 1022.1
20260901081510 63 202 0.9 5.2 0.00 0.08 0.00 87 1021.9
20260901080018 62 236 0.9 7.0 0.00 0.08 0.00 88 1021.9
20260901074526 61 249 1.7 6.1 0.00 0.08 0.00 89 1021.5
20260901073041 61 292 0.0 3.5 0.00 0.08 0.00 90 1021.5
20260901071530 60 216 0.9 3.5 0.00 0.08 0.00 91 1021.4
20260901070015 60 132 0.9 6.1 0.00 0.08 0.00 91 1021.4
20260901064518 60 171 0.0 2.6 0.00 0.08 0.00 92 1021.3
20260901063026 59 121 0.9 4.3 0.00 0.08 0.00 92 1021.3
20260901061532 59 191 0.0 3.5 0.00 0.08 0.00 93 1021.3
20260901060030 59 211 0.0 2.6 0.00 0.08 0.00 93 1021.1
20260901054516 58 217 0.9 3.5 0.00 0.08 0.00 94 1020.9
20260901053004 58 153 0.0 2.6 0.00 0.08 0.00 94 1020.9
20260901051502 58 191 0.0 1.7 0.00 0.08 0.00 93 1020.7
20260901050008 58 180 0.0 2.6 0.00 0.08 0.00 93 1020.7
20260901044510 58 216 0.0 2.6 0.00 0.08 0.00 93 1020.7
20260901043016 59 205 0.0 4.3 0.00 0.08 0.00 93 1020.6
20260901041516 59 167 0.9 2.6 0.00 0.08 0.00 93 1020.4
20260901040006 59 168 0.9 3.5 0.00 0.08 0.00 93 1020.3
20260901034508 59 188 0.9 2.6 0.00 0.08 0.00 93 1020.2
20260901033013 59 128 0.0 3.5 0.00 0.08 0.00 92 1020.2
20260901031521 59 190 0.0 3.5 0.00 0.08 0.00 93 1020.2
20260901030018 59 194 0.9 5.2 0.00 0.08 0.00 92 1020.2
20260901024503 58 208 0.9 3.5 0.00 0.08 0.00 93 1020.2
20260901023010 58 180 0.0 2.6 0.00 0.08 0.00 93 1020.1
20260901021523 58 220 0.0 1.7 0.00 0.08 0.00 93 1020.1
20260901020022 58 186 0.0 2.6 0.00 0.08 0.00 92 1020.2